User: anonymous   Login
Location: Donald C. Martin Observatory
(38.3885°N, 82.3916°W)
Time: 16:40:39
(UTC-04:00)
Language:

Cosmos 1484 Rocket - Orbit

View from above orbital plane
View from above orbital plane
View from above satellite
View from above satellite

Ground track
Ground track

The orbit data is extracted from the following two-line orbital elements,

1 14208U 83075B   18145.18155235  .00000129  00000-0  11411-4 0  9991
2 14208  97.3436 146.7948 0040085  33.0752 327.2973 15.10690560899131
Epoch (UTC): 25 May 2018 04:21:26
Eccentricity: 0.0040085
inclination: 97.3436°
perigee height: 506 km
apogee height: 562 km
right ascension of ascending node: 146.7948°
argument of perigee: 33.0752°
revolutions per day: 15.10690560
mean anomaly at epoch: 327.2973°
orbit number at epoch: 89913

The dashed part of the orbit path shows where the satellite is in the earth's shadow,  

DLR